Location: Unspecified
(34.4950°S, 58.5160°W)
Time: 13:59:58
(UTC+00:00)

BlueWalker 3 - Pass Details

Date: 16 February 2026
Orbit: 451 x 458 km, 53.2° (Epoch: 4 March)

Event Time Altitude Azimuth Distance (km) Brightness Sun altitude
Exits shadow 07:56:14 - 222° (SW) 1,928 4.8 -18.5°
Reaches altitude 10° 07:56:59 10° 221° (SW) 1,627 4.4 -18.4°
Maximum altitude 08:00:38 73° 135° (SE) 490 1.9 -17.7°
Drops below altitude 10° 08:04:16 10° 50° (NE) 1,610 4.8 -17.1°
Sets 08:06:24 0° 48° (NE) 2,478 5.7 -16.7°
